Location: ???????
(55.3754°N, 39.3545°E)
Time: 22:57:24
(UTC+00:00)

CSL-04 Rocket - Pass Details

Date: 14 April 2026
Orbit: 804 x 858 km, 98.7° (Epoch: 13 May)

Event Time Altitude Azimuth Distance (km) Brightness Sun altitude
Rises 17:01:00 0° 168° (SSE) 3,415 6.5 -5.5°
Reaches altitude 10° 17:03:22 10° 171° (S) 2,486 5.8 -5.8°
Maximum altitude 17:08:54 72° 256° (WSW) 906 4.1 -6.5°
Drops below altitude 10° 17:14:28 10° 341° (NNW) 2,506 6.9 -7.2°
Sets 17:16:52 0° 343° (NNW) 3,444 7.6 -7.5°
